Traverse City, MI

11:20 PM EDT on September 28, 2016 (GMT -0400)
Cherry Capital

Weather History for KTVC - July, 2013

Change the Weather History Date:

Saturday, July 20, 2013

  Actual Average Record
Temperature  
Mean Temperature 64 °F 69 °F  
Max Temperature 74 °F 80 °F 97 °F (1977)
Min Temperature 54 °F 58 °F 41 °F (1965)
Degree Days  
Heating Degree Days 1 1  
Month to date heating degree days 6 21  
Since 1 June heating degree days 108 133  
Since 1 July heating degree days 6 21  
Cooling Degree Days 0 5  
Month to date cooling degree days 185 100  
Year to date cooling degree days 314 201  
Since 1 June cooling degree days 272 181  
Growing Degree Days 16 (Base 50)    
Moisture  
Dew Point 53 °F    
Average Humidity 64    
Maximum Humidity 93    
Minimum Humidity 35    
Precipitation  
Precipitation 0.00 in 0.09 in 1.35 in (2010)
Month to date precipitation 1.11 1.93  
Year to date precipitation 14.87 16.64  
Sea Level Pressure  
Sea Level Pressure 29.87 in    
Wind  
Wind Speed 7 mph (North)    
Max Wind Speed 15 mph    
Max Gust Speed 21 mph    
Visibility 10 miles    
Events      
T = Trace of Precipitation, MM = Missing Value Source: NWS Daily Summary

Daily Weather History Graph

Daily Weather History Graph

Search for Another Location

Airport or City:

Trip Planner

Search our weather history database for the weather conditions in past years. The results will help you decide how hot, cold, wet, or windy it might be!

Date:

Astronomy

Jul. 20, 2013 Rise Set
Actual Time 6:15 AM EDT 9:20 PM EDT
Civil Twilight 5:40 AM EDT 9:55 PM EDT
Nautical Twilight 4:55 AM EDT 10:40 PM EDT
Astronomical Twilight 4:01 AM EDT 11:34 PM EDT
Moon 7:23 PM EDT (7/20) 3:55 AM EDT (7/20)
Length of Visible Light 16h 15m
Length of Day
15h 05m
Waxing Gibbous, 93% of the Moon is Illuminated
Jul 20
Waxing Gibbous
Jul 22
Full
Jul 29
Last Quarter
Aug 6
New
Aug 14
First Quarter

Hourly Weather History & Observations

Time (EDT) Temp. Dew Point Humidity Pressure Visibility Wind Dir Wind Speed Gust Speed Precip Events Conditions
12:53 AM 69.1 °F 61.0 °F 75% 29.76 in 10.0 mi Calm Calm - N/A   Clear
1:53 AM 66.0 °F 61.0 °F 84% 29.76 in 10.0 mi Calm Calm - N/A   Clear
2:53 AM 66.0 °F 62.1 °F 87% 29.76 in 10.0 mi SSW 3.5 mph - N/A   Clear
3:53 AM 63.0 °F 60.1 °F 90% 29.76 in 10.0 mi Calm Calm - N/A   Clear
4:53 AM 62.1 °F 59.0 °F 90% 29.76 in 10.0 mi Calm Calm - N/A   Clear
5:53 AM 63.0 °F 61.0 °F 93% 29.76 in 10.0 mi Calm Calm - N/A   Clear
6:53 AM 64.0 °F 61.0 °F 90% 29.78 in 10.0 mi Calm Calm - N/A   Partly Cloudy
7:53 AM 73.0 °F 59.0 °F 61% 29.81 in 10.0 mi WNW 8.1 mph - N/A   Scattered Clouds
8:53 AM 73.0 °F 60.1 °F 64% 29.83 in 10.0 mi NNW 10.4 mph - N/A   Scattered Clouds
9:53 AM 72.0 °F 57.9 °F 61% 29.86 in 10.0 mi North 9.2 mph - N/A   Scattered Clouds
10:53 AM 72.0 °F 54.0 °F 53% 29.87 in 10.0 mi North 10.4 mph - N/A   Scattered Clouds
11:53 AM 73.0 °F 50.0 °F 44% 29.89 in 10.0 mi North 12.7 mph - N/A   Scattered Clouds
12:53 PM 73.9 °F 48.0 °F 40% 29.91 in 10.0 mi NE 13.8 mph - N/A   Mostly Cloudy
1:53 PM 73.0 °F 51.1 °F 46% 29.91 in 10.0 mi NNE 10.4 mph 19.6 mph N/A   Scattered Clouds
2:53 PM 72.0 °F 48.0 °F 43% 29.92 in 10.0 mi NE 12.7 mph 18.4 mph N/A   Mostly Cloudy
3:53 PM 73.0 °F 44.1 °F 35% 29.92 in 10.0 mi North 9.2 mph 18.4 mph N/A   Mostly Cloudy
4:53 PM 71.1 °F 44.1 °F 38% 29.93 in 10.0 mi NNE 10.4 mph - N/A   Mostly Cloudy
5:53 PM 71.1 °F 43.0 °F 36% 29.93 in 10.0 mi North 11.5 mph - N/A   Scattered Clouds
6:53 PM 70.0 °F 45.0 °F 41% 29.94 in 10.0 mi NNE 12.7 mph 17.3 mph N/A   Scattered Clouds
7:53 PM 68.0 °F 46.0 °F 45% 29.94 in 10.0 mi North 9.2 mph - N/A   Scattered Clouds
8:53 PM 66.0 °F 46.0 °F 48% 29.96 in 10.0 mi North 8.1 mph - N/A   Scattered Clouds
9:53 PM 64.9 °F 48.0 °F 54% 29.97 in 10.0 mi North 4.6 mph - N/A   Partly Cloudy
10:53 PM 60.1 °F 48.0 °F 64% 29.99 in 10.0 mi Calm Calm - N/A   Clear
11:53 PM 57.0 °F 48.0 °F 72% 30.00 in 10.0 mi Calm Calm - N/A   Clear